Torna al catalogo

STARLINK-30597

AttivoComunicazioniVLEO
NORAD 58078·PAYLOAD·🇺🇸 United States

Lanciato Oct 18, 2023 da Cape Canaveral Space Force Station

Loading…

Prossimi Passaggi (prossime 24 ore)

TLE

AggiornatoSource: CelesTrak SupGP

Epoca: Sep 14, 2026, 22:07 UTC

1 58078C 23160D   26257.92201389  .00047803  00000+0  17315-2 0  2573
2 58078  43.0000  88.9247 0001454 270.8568 302.3830 15.27552508    15

Traccia STARLINK-30597 in tempo reale con AllMySat

Download on the App Store